Flag for U.S.A. Weather past 2 weeks in Beaumont, Texas, U.S.A.

Now
62 °F

Fog.


Feels Like: 62 °F
Forecast: 54 / 67 °F
Wind: 9 mph from Northeast

Location: Jefferson County Airport

Current Time: Dec 18, 2014 at 1:50:52 PM

Latest Report: Dec 18, 2014 at 12:53 PM


Visibility: 4 mi

Pressure: 30.06 "Hg

Humidity: 90%

Dew point: 59 °F

Location of BeaumontLocation

Historic Weather in Beaumont — Graph

°F

Beaumont temperature yesterday

Maximum temperature yesterday: 62 °F (at 12:53 PM)
Minimum temperature yesterday: 45 °F (at 5:53 AM)
Average temperature yesterday: 54 °F

Past Weeks' High & Low Weather Summary

 TemperatureHumidityPressure
High80 °F (Dec 5, 10:53 AM)100% (Dec 5, 12:53 AM)30.35 "Hg (Dec 5, 12:53 AM)
Low41 °F (Dec 9, 6:53 AM)34% (Dec 16, 12:53 PM)29.91 "Hg (Dec 15, 1:53 PM)
Average60 °F79%30.19 "Hg
* Reported Dec 3 12:53 PM — Dec 18 12:53 PM, Beaumont, Weather by CustomWeather, © 2014

Note: Actual official high and low records may vary slightly from our data, if they occured in-between our weather recording intervals... More about our weather records

Advertising

Beaumont weather history for previous 24 hours

 ConditionsComfort  
Time TempWeatherWind HumidityBarometerVisibility
12:53 PM
Dec 18
62 °FFog.9 mph90%30.06 "Hg4 mi
12:00 PM60 °FLight rain. Fog.7 mph93%30.09 "Hg2 mi
10:53 AM60 °FLight rain. Fog.8 mph93%30.12 "Hg5 mi
10:04 AM64 °FMostly cloudy.6 mph87%30.12 "Hg8 mi
8:53 AM62 °FLow clouds.6 mph90%30.10 "Hg9 mi
8:00 AM61 °FOvercast.7 mph90%30.09 "Hg9 mi
7:00 AM60 °FMostly cloudy.6 mph90%30.09 "Hg10 mi
5:53 AM60 °FPassing clouds.7 mph86%30.06 "Hg10 mi
4:53 AM60 °FMostly cloudy.12 mph86%30.06 "Hg10 mi
3:53 AM61 °FMostly cloudy.9 mph83%30.07 "Hg10 mi
2:53 AM61 °FMostly cloudy.10 mph83%30.08 "Hg10 mi
1:53 AM60 °FMostly cloudy.8 mph83%30.11 "Hg10 mi
12:53 AM59 °FOvercast.8 mph81%30.11 "Hg10 mi
11:53 PM
Dec 17
58 °FMostly cloudy.8 mph81%30.12 "Hg10 mi
10:53 PM58 °FPassing clouds.7 mph78%30.13 "Hg10 mi
9:53 PM58 °FPassing clouds.8 mph75%30.14 "Hg8 mi
8:53 PM58 °FOvercast.10 mph75%30.14 "Hg10 mi
7:53 PM57 °FClear.10 mph78%30.13 "Hg10 mi
6:53 PM57 °FClear.13 mph74%30.11 "Hg8 mi
5:53 PM57 °FPassing clouds.8 mph69%30.12 "Hg9 mi
4:53 PM59 °FOvercast.9 mph62%30.14 "Hg10 mi
3:53 PM61 °FPartly sunny.13 mph58%30.14 "Hg10 mi
2:53 PM62 °FOvercast.10 mph54%30.14 "Hg10 mi
1:53 PM62 °FMostly cloudy.9 mph54%30.16 "Hg10 mi
Weather by CustomWeather, © 2014

See weather overviewHow to use our weather pages